7 * 24
多渠道服务支持
STARLINK-2251是美国SpaceX公司星链(Starlink)星座中的卫星,于2021年5月15日发射。星链项目旨在通过近地轨道卫星星座,为全球提供高速低延迟互联网服务,重点覆盖地面基础设施难以抵达的偏远地区,也可支持军事及应急通信。 作为星链早期组网卫星,它运行在近地轨道,配合星座其他卫星,共同构建全球覆盖的卫星通信网络,为用户提供宽带接入服务,不过星链大规模部署也引发了太空拥堵与天文观测干扰等争议。
美国
(US)
| 数据来源 | 国际轨道数据 |
| 星历时间: | 2026-09-11T13:30:03+0800 7小时前 查看轨道信息 |
| 半长轴: | 6848.887km |
| 偏心率: | 0.0001073 |
| 轨道倾角: | 53.161° |
| 近地点辐角 | 89.541° |
| 升交点赤经 | 332.429° |
| 平近点角 | 270.571° |
| 近地点: | 470.015km |
| 远地点: | 471.485km |
| 周期: | 94.013分钟 |
| 每日圈数: | 15.316967 |